• In Austria
  • List of Countries
  • For 7 days
  • Water Temperature
  • Satellite Maps
  • Weather Map
  • News
  • Weather Widgets
  • user-avatar
    Login

    Hourly Weather Chyzhivka

    Today, 23 October, Tuesday

    Time Temperature Precipitation Wind Pressure Humidity
    00:00 +4°C° 0 mm 2 mps 750 mmHg 74%
    01:00 +4°C° 0 mm 2 mps 749 mmHg 77%
    02:00 +3°C° 0 mm 3 mps 748 mmHg 77%
    03:00 +2°C° 0 mm 3 mps 748 mmHg 79%
    04:00 +2°C° 0 mm 3 mps 747 mmHg 82%
    05:00 +2°C° 0 mm 3 mps 747 mmHg 85%
    06:00 +2°C° 0 mm 3 mps 747 mmHg 84%
    07:00 +3°C° 0 mm 4 mps 746 mmHg 84%
    08:00 +3°C° 0 mm 4 mps 746 mmHg 82%
    09:00 +4°C° 0 mm 4 mps 745 mmHg 81%
    10:00 +5°C° 0 mm 4 mps 745 mmHg 79%
    11:00 +6°C° 0 mm 4 mps 745 mmHg 77%
    12:00 +6°C° 0 mm 4 mps 744 mmHg 73%
    13:00 +6°C° 0 mm 5 mps 743 mmHg 70%
    14:00 +7°C° 0 mm 5 mps 742 mmHg 66%
    15:00 +6°C° 0 mm 5 mps 741 mmHg 67%
    16:00 +6°C° 0 mm 4 mps 740 mmHg 68%
    17:00 +6°C° 0 mm 4 mps 740 mmHg 68%
    18:00 +6°C° 0.3 mm 5 mps 739 mmHg 70%
    19:00 +5°C° 0.3 mm 5 mps 738 mmHg 72%
    20:00 +5°C° 0.3 mm 5 mps 737 mmHg 74%
    21:00 +4°C° 0.3 mm 6 mps 735 mmHg 75%
    22:00 +4°C° 0.3 mm 6 mps 734 mmHg 76%
    23:00 +4°C° 0.3 mm 6 mps 733 mmHg 77%

    Tomorrow, 24 October, Wednesday

    Time Temperature Precipitation Wind Pressure Humidity
    00:00 +4°C° 0.3 mm 6 mps 732 mmHg 80%
    01:00 +4°C° 0.3 mm 6 mps 730 mmHg 82%
    02:00 +4°C° 0.3 mm 6 mps 729 mmHg 85%
    03:00 +4°C° 0.2 mm 6 mps 728 mmHg 85%
    04:00 +4°C° 0.2 mm 6 mps 727 mmHg 85%
    05:00 +5°C° 0.2 mm 6 mps 726 mmHg 85%
    06:00 +6°C° 0.3 mm 5 mps 725 mmHg 86%
    07:00 +6°C° 0.3 mm 5 mps 724 mmHg 86%
    08:00 +6°C° 0.3 mm 5 mps 724 mmHg 86%
    09:00 +6°C° 0.3 mm 5 mps 724 mmHg 84%
    10:00 +6°C° 0.3 mm 5 mps 724 mmHg 81%
    11:00 +6°C° 0.3 mm 5 mps 724 mmHg 79%
    12:00 +6°C° 0.8 mm 5 mps 724 mmHg 79%
    13:00 +5°C° 0.8 mm 6 mps 724 mmHg 79%
    14:00 +4°C° 0.8 mm 6 mps 724 mmHg 79%
    15:00 +4°C° 0.4 mm 6 mps 725 mmHg 78%
    16:00 +5°C° 0.4 mm 5 mps 725 mmHg 77%
    17:00 +5°C° 0.4 mm 5 mps 725 mmHg 76%
    18:00 +3°C° 0.1 mm 5 mps 726 mmHg 78%
    19:00 +4°C° 0.1 mm 4 mps 726 mmHg 80%
    20:00 +3°C° 0.1 mm 4 mps 726 mmHg 82%
    21:00 +3°C° 0 mm 3 mps 726 mmHg 84%
    22:00 +2°C° 0 mm 3 mps 727 mmHg 86%
    23:00 +2°C° 0 mm 3 mps 727 mmHg 88%

    Day after tomorrow, 25 October, Thursday

    Time Temperature Precipitation Wind Pressure Humidity
    00:00 +2°C° 0 mm 3 mps 727 mmHg 89%
    01:00 +1°C° 0 mm 4 mps 728 mmHg 90%
    02:00 +1°C° 0 mm 4 mps 728 mmHg 91%
    03:00 +1°C° 0 mm 4 mps 728 mmHg 90%
    04:00 +2°C° 0 mm 5 mps 729 mmHg 89%
    05:00 +2°C° 0 mm 5 mps 729 mmHg 88%
    06:00 +3°C° 0.1 mm 6 mps 730 mmHg 85%
    07:00 +3°C° 0.1 mm 6 mps 730 mmHg 83%
    08:00 +3°C° 0.1 mm 7 mps 731 mmHg 80%
    09:00 +3°C° 0.1 mm 7 mps 732 mmHg 77%
    10:00 +3°C° 0.1 mm 7 mps 732 mmHg 74%
    11:00 +2°C° 0.1 mm 8 mps 733 mmHg 71%
    12:00 +3°C° 0 mm 7 mps 733 mmHg 70%
    13:00 +3°C° 0 mm 7 mps 733 mmHg 69%
    14:00 +3°C° 0 mm 6 mps 734 mmHg 67%
    15:00 +3°C° 0 mm 6 mps 734 mmHg 69%
    16:00 +3°C° 0 mm 5 mps 734 mmHg 70%
    17:00 +4°C° 0 mm 4 mps 735 mmHg 72%
    18:00 +3°C° 0 mm 3 mps 735 mmHg 73%
    19:00 +3°C° 0 mm 3 mps 735 mmHg 75%
    20:00 +3°C° 0 mm 3 mps 735 mmHg 77%
    21:00 +3°C° 0 mm 3 mps 735 mmHg 80%
    22:00 +2°C° 0 mm 3 mps 735 mmHg 83%
    23:00 +3°C° 0 mm 2 mps 734 mmHg 86%

    26 October, Friday

    Time Temperature Precipitation Wind Pressure Humidity
    00:00 +3°C° 0.1 mm 2 mps 735 mmHg 87%
    01:00 +3°C° 0.1 mm 2 mps 735 mmHg 88%
    02:00 +4°C° 0.1 mm 1 mps 735 mmHg 89%
    03:00 +3°C° 0.1 mm 2 mps 735 mmHg 89%
    04:00 +3°C° 0.1 mm 2 mps 736 mmHg 89%
    05:00 +3°C° 0.1 mm 2 mps 736 mmHg 90%
    06:00 +3°C° 0 mm 2 mps 737 mmHg 89%
    07:00 +2°C° 0 mm 3 mps 737 mmHg 88%
    08:00 +2°C° 0 mm 3 mps 738 mmHg 86%
    09:00 +3°C° 0 mm 4 mps 738 mmHg 80%
    10:00 +4°C° 0 mm 4 mps 739 mmHg 74%
    11:00 +5°C° 0 mm 5 mps 739 mmHg 67%
    12:00 +5°C° 0.1 mm 5 mps 739 mmHg 68%
    13:00 +6°C° 0.1 mm 5 mps 739 mmHg 69%
    14:00 +6°C° 0.1 mm 5 mps 739 mmHg 69%
    15:00 +6°C° 0.2 mm 5 mps 740 mmHg 73%
    16:00 +5°C° 0.2 mm 5 mps 740 mmHg 76%
    17:00 +5°C° 0.2 mm 4 mps 740 mmHg 79%
    18:00 +4°C° 0 mm 4 mps 741 mmHg 82%
    19:00 +4°C° 0 mm 4 mps 741 mmHg 84%
    20:00 +3°C° 0 mm 4 mps 742 mmHg 86%
    21:00 +3°C° 0 mm 3 mps 742 mmHg 88%
    22:00 +2°C° 0 mm 3 mps 742 mmHg 89%
    23:00 +2°C° 0 mm 3 mps 742 mmHg 91%

    27 October, Saturday

    Time Temperature Precipitation Wind Pressure Humidity
    00:00 +2°C° 0 mm 3 mps 742 mmHg 90%
    01:00 +1°C° 0 mm 4 mps 742 mmHg 90%
    02:00 +3°C° 0 mm 4 mps 741 mmHg 89%
    03:00 +2°C° 0.1 mm 5 mps 741 mmHg 87%
    04:00 +3°C° 0.1 mm 5 mps 740 mmHg 85%
    05:00 +4°C° 0.1 mm 6 mps 740 mmHg 83%
    06:00 +5°C° 0 mm 6 mps 739 mmHg 82%
    07:00 +5°C° 0 mm 7 mps 739 mmHg 81%
    08:00 +6°C° 0 mm 7 mps 739 mmHg 81%
    09:00 +8°C° 0 mm 7 mps 738 mmHg 77%
    10:00 +9°C° 0 mm 8 mps 738 mmHg 74%
    11:00 +10°C° 0 mm 8 mps 738 mmHg 71%
    12:00 +10°C° 0.1 mm 8 mps 738 mmHg 66%
    13:00 +10°C° 0.1 mm 8 mps 739 mmHg 61%
    14:00 +10°C° 0.1 mm 8 mps 739 mmHg 55%
    15:00 +9°C° 0 mm 7 mps 739 mmHg 57%
    16:00 +8°C° 0 mm 6 mps 740 mmHg 58%
    17:00 +7°C° 0 mm 5 mps 740 mmHg 59%
    18:00 +7°C° 0 mm 5 mps 740 mmHg 60%
    19:00 +6°C° 0 mm 5 mps 741 mmHg 61%
    20:00 +5°C° 0 mm 5 mps 741 mmHg 62%
    21:00 +5°C° 0 mm 5 mps 742 mmHg 63%
    22:00 +5°C° 0 mm 5 mps 743 mmHg 65%
    23:00 +3°C° 0 mm 5 mps 743 mmHg 66%

    28 October, Sunday

    Time Temperature Precipitation Wind Pressure Humidity
    00:00 +4°C° 0 mm 4 mps 744 mmHg 67%
    01:00 +4°C° 0 mm 4 mps 744 mmHg 69%
    02:00 +4°C° 0 mm 4 mps 745 mmHg 70%
    03:00 +4°C° 0 mm 3 mps 746 mmHg 72%
    04:00 +3°C° 0 mm 3 mps 746 mmHg 75%
    05:00 +4°C° 0 mm 2 mps 747 mmHg 77%
    06:00 +4°C° 0 mm 2 mps 747 mmHg 77%
    07:00 +4°C° 0 mm 2 mps 748 mmHg 76%
    08:00 +5°C° 0 mm 2 mps 749 mmHg 76%
    09:00 +6°C° 0 mm 1 mps 749 mmHg 72%
    10:00 +7°C° 0 mm 1 mps 749 mmHg 68%
    11:00 +7°C° 0 mm 1 mps 750 mmHg 65%
    12:00 +7°C° 0 mm 1 mps 750 mmHg 65%
    13:00 +7°C° 0 mm 1 mps 750 mmHg 65%
    14:00 +7°C° 0 mm 1 mps 750 mmHg 66%
    15:00 +7°C° 0 mm 1 mps 750 mmHg 67%
    16:00 +6°C° 0 mm 2 mps 750 mmHg 68%
    17:00 +6°C° 0 mm 2 mps 750 mmHg 70%
    18:00 +4°C° 0.5 mm 3 mps 750 mmHg 71%
    19:00 +4°C° 0.5 mm 3 mps 750 mmHg 73%
    20:00 +4°C° 0.5 mm 3 mps 750 mmHg 75%
    21:00 +4°C° 0.4 mm 4 mps 750 mmHg 76%
    22:00 +4°C° 0.4 mm 4 mps 750 mmHg 78%
    23:00 +3°C° 0.4 mm 5 mps 749 mmHg 79%

    29 October, Monday

    Time Temperature Precipitation Wind Pressure Humidity
    00:00 +3°C° 0.5 mm 5 mps 749 mmHg 81%
    01:00 +3°C° 0.5 mm 5 mps 749 mmHg 83%
    02:00 +3°C° 0.5 mm 5 mps 748 mmHg 84%
    03:00 +3°C° 0 mm 5 mps 748 mmHg 85%
    04:00 +3°C° 0 mm 5 mps 747 mmHg 86%
    05:00 +4°C° 0 mm 4 mps 747 mmHg 87%
    06:00 +4°C° 0 mm 4 mps 747 mmHg 88%
    07:00 +5°C° 0 mm 4 mps 747 mmHg 90%
    08:00 +5°C° 0 mm 3 mps 747 mmHg 91%
    09:00 +7°C° 0 mm 3 mps 746 mmHg 92%
    10:00 +8°C° 0 mm 3 mps 746 mmHg 93%
    11:00 +10°C° 0 mm 3 mps 746 mmHg 95%
    12:00 +10°C° 0 mm 3 mps 746 mmHg 94%
    13:00 +11°C° 0 mm 3 mps 745 mmHg 94%
    14:00 +12°C° 0 mm 3 mps 745 mmHg 94%
    15:00 +12°C° 0 mm 3 mps 745 mmHg 93%
    16:00 +13°C° 0 mm 2 mps 745 mmHg 93%
    17:00 +13°C° 0 mm 2 mps 744 mmHg 92%
    18:00 +11°C° 0 mm 3 mps 744 mmHg 89%
    19:00 +11°C° 0 mm 3 mps 744 mmHg 86%
    20:00 +11°C° 0 mm 3 mps 744 mmHg 83%
    21:00 +11°C° 0 mm 4 mps 744 mmHg 80%
    22:00 +11°C° 0 mm 4 mps 744 mmHg 77%
    23:00 +12°C° 0 mm 5 mps 744 mmHg 73%
    Show more